Preview of NWS' New Version of Forecast
This preview is not operational and should not be used for support decisions.

Regional Weather Roundup (RWR)

Issued by National Weather Service (NWS)

                            
000
ASCA42 TJSJ 171110
RWRPR 
PUERTO RICO/U.S. VIRGIN ISLANDS HOURLY WEATHER ROUNDUP
NATIONAL WEATHER SERVICE SAN JUAN PR
700 AM AST FRI MAY 17 2019

PRZ001>002-007>008-010-171200-
PUERTO RICO
  
CITY           SKY/WX    TMP DP  RH WIND       PRES   REMARKS
SAN JUAN LMM   MOSUNNY   81  73  78 CALM      30.00R                  
AGUADILLA      SUNNY     75  73  94 CALM      30.01                   
CEIBA          PTSUNNY   81  73  78 SE8       30.02R                  
$$

VIZ001>002-171200-
U.S. VIRGIN ISLANDS
  
CITY           SKY/WX    TMP DP  RH WIND       PRES   REMARKS
CHARLOTTE AMA    N/A    N/A N/A N/A MISG      30.00R                  
CHRISTIANSTED  MOSUNNY   81  72  74 E12       30.01R                  
$$

HOURLY WEATHER ROUNDUP FOR THE NEWS MEDIA
  
CITY           SKY/WX    TMP DP  RH WIND       PRES   REMARKS
ORLANDO        FAIR      68  63  84 E3        30.04R                  
NEW YORK       FAIR      59  55  87 S6        29.84R                  
NEWARK         PTSUNNY   62  53  72 SW10      29.82R                  
CHICAGO        CLOUDY    53  46  77 N14G25    29.80R                  
HARTFORD       CLOUDY    52  52 100 S6        29.84R                  
BOSTON         LGT RAIN  54  48  80 CALM      29.83R                  
DALLAS         MOCLDY    71  63  75 S7        29.86S                  
PHILADELPHIA   FAIR      60  52  74 SW8       29.84R                  
LOS ANGELES    PTCLDY    56  48  74 CALM      29.97S                  
WASHINGTON DC  CLOUDY    57  52  83 S3        29.83S